Regional Weather Roundup
Issued by NWS

Home | Current Version | Previous Version | Graphics & Text | Print | Product List | Glossary On
Versions: 1 2 3 4 5 6 7 8 9 10 11 12 13 14 15 16 17 18 19 20 21 22 23 24 25 26 27 28 29 30 31 32 33 34 35 36 37 38 39 40 41 42 43 44 45 46 47 48 49 50
555
ASUS43 KDMX 271906
RWRIA

WEATHER ROUNDUP FOR IOWA
NATIONAL WEATHER SERVICE DES MOINES IA
200 PM CDT TUE JUN 27 2017

NOTE: "FAIR" INDICATES FEW OR NO CLOUDS BELOW 12,000 FEET WITH NO
SIGNIFICANT WEATHER AND/OR OBSTRUCTIONS TO VISIBILITY.

* - THESE STATIONS ARE NOT NWS STATIONS...THUS NOT UNDER NWS
QUALITY CONTROL.  THEY ALSO DO NOT REPORT WEATHER SUCH
AS PRECIPITATION OR FOG.

IAZ001>003-012>014-020>022-031>034-043>046-272000-
   NORTHWEST IOWA

CITY           SKY/WX    TMP DP  RH WIND       PRES   REMARKS
CARROLL *      SUNNY     77  50  38 S15G23    30.00F
CHEROKEE *     MOSUNNY   73  46  37 S16G22    29.97F
DENISON *      SUNNY     77  52  41 S13G20    29.99F
LE MARS *      MOSUNNY   77  50  38 S18G28    29.94F
ORANGE CITY *  CLOUDY    73  46  38 S18G25    29.95F
SHELDON *      MOSUNNY   75  46  35 S21G26    29.94F
SIOUX CITY     SUNNY     78  55  44 S17G24    29.94F
SPENCER        SUNNY     76  43  30 S21G31    29.97F
STORM LAKE *     N/A     75  46  35 S18G25    29.99F
$$

IAZ055>058-069>071-079>083-090>094-272000-
   SOUTHWEST IOWA

CITY           SKY/WX    TMP DP  RH WIND       PRES   REMARKS
ATLANTIC *     SUNNY     75  55  50 S14G21    30.00F
AUDUBON *      SUNNY     75  54  46 S12       30.01F
CLARINDA *     MOSUNNY   77  61  57 S10G20    30.03F
COUNCIL BLFS * SUNNY     77  61  57 S21       29.98F
CRESTON *      MOSUNNY   75  55  50 S14G21    30.04F
HARLAN  *      SUNNY     77  57  50 SE15G22   30.02F
LAMONI         MOSUNNY   75  56  51 SE13G20   30.04F
RED OAK *      SUNNY     77  61  57 S17       30.00F
SHENANDOAH *   MOSUNNY   77  61  57 S14G23    30.00F
$$

IAZ047>049-059>061-072>074-084-272000-
   CENTRAL IOWA

CITY           SKY/WX    TMP DP  RH WIND       PRES   REMARKS
AMES           SUNNY     74  49  41 S13G21    30.04F
ANKENY *       SUNNY     73  48  40 SE9G16    30.05F
BOONE *        SUNNY     73  46  38 S13G20    30.02F
CHARITON *     SUNNY     77  50  38 S12G18    30.05F
DES MOINES     PTSUNNY   77  48  35 S12G21    30.04F
GRINNELL*      SUNNY     74  41  31 S6        30.08F
KNOXVILLE *    SUNNY     75  48  38 S14       30.05F
MARSHALLTOWN   SUNNY     75  45  34 S16G22    30.05F
NEWTON *       SUNNY     73  45  35 S13       30.06F
PELLA *        SUNNY     75  45  34 S7        30.08F
PERRY *          N/A     75  46  35 S15       30.03F
$$

IAZ004>006-015-016-023>025-035-036-272000-
   NORTH CENTRAL IOWA

CITY           SKY/WX    TMP DP  RH WIND       PRES   REMARKS
ALGONA *       SUNNY     75  43  31 S15G26    30.01F
CLARION *        N/A     75  45  33 S17       30.03F
ESTHERVILLE    SUNNY     72  44  36 S17G29    29.97F
FORT DODGE *   SUNNY     75  43  31 S9G20     30.04S
MASON CITY     SUNNY     75  42  30 S12G23    30.04F
FOREST CITY *    N/A     77  28  16 S14       30.02F
WEBSTER CITY * SUNNY     75  46  35 S10G17    30.01F
IOWA FALLS *     N/A     74  44  33 S13G21    30.05F
$$

IAZ007>011-017>019-026>030-037>042-050>054-066-272000-
   NORTHEAST IOWA

CITY           SKY/WX    TMP DP  RH WIND       PRES   REMARKS
CEDAR RAPIDS   SUNNY     73  47  39 S9        30.08F
CHARLES CITY * SUNNY     73  41  31 S14       30.05F
CLINTON *      SUNNY     73  47  39 MISG      30.10F
DECORAH *      SUNNY     72  45  37 VRB7G15   30.05F
DUBUQUE        SUNNY     72  45  37 VRB7G17   30.09F
MONTICELLO *   SUNNY     73  46  38 S9        30.08F
WATERLOO       SUNNY     74  42  31 S9        30.05F
$$

IAZ064-065-067-068-078-272000-
   EAST CENTRAL IOWA

CITY           SKY/WX    TMP DP  RH WIND       PRES   REMARKS
IOWA CITY      SUNNY     75  45  34 SE12      30.09F
MT. PLEASANT * SUNNY     76  40  27 S10       30.09F
MUSCATINE *    SUNNY     77  43  29 VRB7      30.09F
QUAD CITIES    SUNNY     74  44  34 S6        30.10F
$$

IAZ062-063-075>077-085>089-095>099-272000-
   SOUTHEAST IOWA

CITY           SKY/WX    TMP DP  RH WIND       PRES   REMARKS
BURLINGTON     SUNNY     73  41  31 VRB5      30.10F
FAIRFIELD *    SUNNY     75  39  27 VRB5G14   30.08F
FORT MADISON * SUNNY     73  46  38 S5        30.10F
KEOKUK *       SUNNY     75  46  35 SE12      30.08F
OSKALOOSA *      N/A     75  44  32 S8        30.07F
CENTERVILLE *    N/A     75  50  41 SE3       30.08F
OTTUMWA        SUNNY     76  45  33 S10G17    30.06F
WASHINGTON *   SUNNY     75  43  31 VRB6G13   30.09F
$$

ABBREVIATIONS USED IN REMARKS
   TC - TEMPERATURES IN CELSIUS
  WCI - WIND CHILL INDEX
   HX - HEAT INDEX
  VSB - VISIBILITY
$$





USA.gov is the U.S. government's official web portal to all federal, state and local government web resources and services.